Time,TemperatureF,DewpointF,PressureIn,WindDirection,WindDirectionDegrees,WindSpeedMPH,WindSpeedGustMPH,Humidity,HourlyPrecipIn,Conditions,Clouds,dailyrainin,SoftwareType,DateUTC
2013-06-25 00:04:00,66.7,55.8,27.19,North,0,0.0,0.0,68,0.00,RA,OVC,0.00,WeatherDisplay:10.37,2013-06-25 05:04:00,
2013-06-25 00:09:00,66.7,55.8,27.19,North,0,0.0,0.0,68,0.00,RA,OVC,0.00,WeatherDisplay:10.37,2013-06-25 05:09:00,
2013-06-25 00:14:00,66.7,55.8,27.19,North,0,0.0,0.0,68,0.00,CLR,OVC,0.00,WeatherDisplay:10.37,2013-06-25 05:14:00,
2013-06-25 00:19:00,66.9,56.0,27.19,North,0,0.0,0.0,68,0.00,CLR,OVC,0.00,WeatherDisplay:10.37,2013-06-25 05:19:00,
2013-06-25 00:24:00,66.9,56.0,27.19,North,0,0.0,0.0,68,0.00,CLR,OVC,0.00,WeatherDisplay:10.37,2013-06-25 05:24:00,
2013-06-25 00:29:00,66.9,56.0,27.19,North,0,0.0,0.0,68,0.00,CLR,OVC,0.00,WeatherDisplay:10.37,2013-06-25 05:29:00,
2013-06-25 00:34:00,66.9,56.0,27.19,North,0,0.0,0.0,68,0.00,CLR,OVC,0.00,WeatherDisplay:10.37,2013-06-25 05:34:00,
2013-06-25 00:39:00,66.9,56.0,27.19,North,0,0.0,0.0,68,0.00,CLR,OVC,0.00,WeatherDisplay:10.37,2013-06-25 05:39:00,
2013-06-25 00:44:00,66.9,56.0,27.19,North,0,0.0,0.0,68,0.00,CLR,OVC,0.00,WeatherDisplay:10.37,2013-06-25 05:44:00,
2013-06-25 00:49:00,66.9,56.4,27.19,North,0,0.0,0.0,69,0.00,CLR,OVC,0.00,WeatherDisplay:10.37,2013-06-25 05:49:00,
2013-06-25 00:54:00,66.9,56.4,27.19,North,0,0.0,0.0,69,0.00,CLR,OVC,0.00,WeatherDisplay:10.37,2013-06-25 05:54:00,
2013-06-25 00:59:00,67.1,56.6,27.19,North,0,0.0,0.0,69,0.00,CLR,OVC,0.00,WeatherDisplay:10.37,2013-06-25 05:59:00,
2013-06-25 01:04:00,67.1,56.6,27.19,North,0,0.0,0.0,69,0.00,CLR,OVC,0.00,WeatherDisplay:10.37,2013-06-25 06:04:00,
2013-06-25 01:09:00,67.3,56.8,27.19,North,0,0.0,0.0,69,0.00,CLR,OVC,0.00,WeatherDisplay:10.37,2013-06-25 06:09:00,
2013-06-25 01:14:00,67.3,56.8,27.19,North,0,0.0,0.0,69,0.00,CLR,OVC,0.00,WeatherDisplay:10.37,2013-06-25 06:14:00,
2013-06-25 01:19:00,67.5,56.9,27.19,North,0,0.0,0.0,69,0.00,CLR,OVC,0.00,WeatherDisplay:10.37,2013-06-25 06:19:00,
2013-06-25 01:24:00,67.5,56.9,27.19,North,0,0.0,0.0,69,0.00,CLR,OVC,0.00,WeatherDisplay:10.37,2013-06-25 06:24:00,
2013-06-25 01:29:00,67.6,57.1,27.19,North,0,0.0,0.0,69,0.00,CLR,OVC,0.00,WeatherDisplay:10.37,2013-06-25 06:29:00,
2013-06-25 01:34:00,67.6,57.1,27.19,North,0,0.0,0.0,69,0.00,CLR,OVC,0.00,WeatherDisplay:10.37,2013-06-25 06:34:00,
2013-06-25 01:39:00,67.6,57.1,27.19,North,0,0.0,0.0,69,0.00,CLR,OVC,0.00,WeatherDisplay:10.37,2013-06-25 06:39:00,
2013-06-25 01:44:00,67.8,57.3,27.19,North,0,0.0,0.0,69,0.00,CLR,OVC,0.00,WeatherDisplay:10.37,2013-06-25 06:44:00,
2013-06-25 01:49:00,68.0,57.4,27.19,North,0,0.0,0.0,69,0.00,CLR,OVC,0.00,WeatherDisplay:10.37,2013-06-25 06:49:00,
2013-06-25 01:54:00,68.0,57.4,27.19,North,0,0.0,0.0,69,0.00,CLR,OVC,0.00,WeatherDisplay:10.37,2013-06-25 06:54:00,
2013-06-25 01:59:00,68.2,57.6,27.19,North,0,0.0,0.0,69,0.00,CLR,OVC,0.00,WeatherDisplay:10.37,2013-06-25 06:59:00,
2013-06-25 02:04:00,68.2,57.6,27.19,North,0,0.0,0.0,69,0.00,CLR,OVC,0.00,WeatherDisplay:10.37,2013-06-25 07:04:00,
2013-06-25 02:09:00,68.2,57.6,27.19,North,0,0.0,0.0,69,0.00,CLR,OVC,0.00,WeatherDisplay:10.37,2013-06-25 07:09:00,
2013-06-25 02:14:00,68.2,57.6,27.19,North,0,0.0,0.0,69,0.00,CLR,OVC,0.00,WeatherDisplay:10.37,2013-06-25 07:14:00,
2013-06-25 02:19:00,68.2,57.6,27.19,North,0,0.0,0.0,69,0.00,CLR,OVC,0.00,WeatherDisplay:10.37,2013-06-25 07:19:00,
2013-06-25 02:24:00,68.4,57.8,27.19,North,0,0.0,0.0,69,0.00,CLR,OVC,0.00,WeatherDisplay:10.37,2013-06-25 07:24:00,
2013-06-25 02:29:00,68.4,57.8,27.19,North,0,0.0,0.0,69,0.00,CLR,OVC,0.00,WeatherDisplay:10.37,2013-06-25 07:29:00,
2013-06-25 02:34:00,68.4,57.8,27.19,North,0,0.0,0.0,69,0.00,CLR,OVC,0.00,WeatherDisplay:10.37,2013-06-25 07:34:00,
2013-06-25 02:39:00,68.4,58.2,27.19,North,0,0.0,0.0,70,0.00,CLR,OVC,0.00,WeatherDisplay:10.37,2013-06-25 07:39:00,
2013-06-25 02:44:00,68.5,58.4,27.19,North,0,0.0,0.0,70,0.00,CLR,OVC,0.00,WeatherDisplay:10.37,2013-06-25 07:44:00,
2013-06-25 02:49:00,68.5,58.4,27.19,North,0,0.0,0.0,70,0.00,CLR,OVC,0.00,WeatherDisplay:10.37,2013-06-25 07:49:00,
2013-06-25 02:54:00,68.7,58.5,27.19,North,0,0.0,0.0,70,0.00,CLR,OVC,0.00,WeatherDisplay:10.37,2013-06-25 07:54:00,
2013-06-25 02:59:00,68.7,58.5,27.19,North,0,0.0,0.0,70,0.00,CLR,OVC,0.00,WeatherDisplay:10.37,2013-06-25 07:59:00,
2013-06-25 03:04:00,68.7,58.5,27.19,North,0,0.0,0.0,70,0.00,CLR,OVC,0.00,WeatherDisplay:10.37,2013-06-25 08:04:00,
2013-06-25 03:09:00,68.7,58.5,27.19,North,0,0.0,0.0,70,0.00,CLR,OVC,0.00,WeatherDisplay:10.37,2013-06-25 08:09:00,
2013-06-25 03:14:00,68.7,58.5,27.19,North,0,0.0,0.0,70,0.00,CLR,OVC,0.00,WeatherDisplay:10.37,2013-06-25 08:14:00,
2013-06-25 03:19:00,68.9,58.7,27.19,North,0,0.0,0.0,70,0.00,CLR,OVC,0.00,WeatherDisplay:10.37,2013-06-25 08:19:00,
2013-06-25 03:24:00,68.9,58.7,27.19,North,0,0.0,0.0,70,0.00,CLR,OVC,0.00,WeatherDisplay:10.37,2013-06-25 08:24:00,
2013-06-25 03:29:00,69.1,58.9,27.19,North,0,0.0,0.0,70,0.00,CLR,OVC,0.00,WeatherDisplay:10.37,2013-06-25 08:29:00,
2013-06-25 03:34:00,69.1,58.9,27.19,North,0,0.0,0.0,70,0.00,CLR,OVC,0.00,WeatherDisplay:10.37,2013-06-25 08:34:00,
2013-06-25 03:39:00,69.3,59.1,27.19,North,0,0.0,0.0,70,0.00,CLR,OVC,0.00,WeatherDisplay:10.37,2013-06-25 08:39:00,
2013-06-25 03:44:00,69.3,59.1,27.19,North,0,0.0,0.0,70,0.00,CLR,OVC,0.00,WeatherDisplay:10.37,2013-06-25 08:44:00,
2013-06-25 03:49:00,69.3,59.1,27.19,North,0,0.0,0.0,70,0.00,CLR,OVC,0.00,WeatherDisplay:10.37,2013-06-25 08:49:00,
2013-06-25 03:54:00,69.3,59.1,27.19,North,0,0.0,0.0,70,0.00,CLR,OVC,0.00,WeatherDisplay:10.37,2013-06-25 08:54:00,
2013-06-25 03:59:00,69.3,59.1,27.19,North,0,0.0,0.0,70,0.00,CLR,OVC,0.00,WeatherDisplay:10.37,2013-06-25 08:59:00,
2013-06-25 04:04:00,69.3,59.1,27.19,North,0,0.0,0.0,70,0.00,CLR,OVC,0.00,WeatherDisplay:10.37,2013-06-25 09:04:00,
2013-06-25 04:09:00,69.4,59.2,27.19,North,0,0.0,0.0,70,0.00,CLR,OVC,0.00,WeatherDisplay:10.37,2013-06-25 09:09:00,
2013-06-25 04:14:00,69.4,59.2,27.19,North,0,0.0,0.0,70,0.00,CLR,OVC,0.00,WeatherDisplay:10.37,2013-06-25 09:14:00,
2013-06-25 04:19:00,69.4,59.2,27.19,North,0,0.0,0.0,70,0.00,CLR,OVC,0.00,WeatherDisplay:10.37,2013-06-25 09:19:00,
2013-06-25 04:24:00,69.4,59.2,27.19,North,0,0.0,0.0,70,0.00,CLR,OVC,0.00,WeatherDisplay:10.37,2013-06-25 09:24:00,
2013-06-25 04:29:00,69.4,59.2,27.19,North,0,0.0,0.0,70,0.00,CLR,OVC,0.00,WeatherDisplay:10.37,2013-06-25 09:29:00,
2013-06-25 04:34:00,69.6,59.4,27.19,North,0,0.0,0.0,70,0.00,CLR,OVC,0.00,WeatherDisplay:10.37,2013-06-25 09:34:00,
2013-06-25 04:39:00,69.4,59.2,27.19,North,0,0.0,0.0,70,0.00,CLR,OVC,0.00,WeatherDisplay:10.37,2013-06-25 09:39:00,
2013-06-25 04:44:00,69.6,59.8,27.19,North,0,0.0,0.0,71,0.00,CLR,OVC,0.00,WeatherDisplay:10.37,2013-06-25 09:44:00,
2013-06-25 04:49:00,69.8,59.6,27.19,North,0,0.0,0.0,70,0.00,CLR,OVC,0.00,WeatherDisplay:10.37,2013-06-25 09:49:00,
2013-06-25 04:54:00,69.8,59.6,27.19,North,0,0.0,0.0,70,0.00,CLR,OVC,0.00,WeatherDisplay:10.37,2013-06-25 09:54:00,
2013-06-25 04:59:00,69.8,59.6,27.19,North,0,0.0,0.0,70,0.00,CLR,OVC,0.00,WeatherDisplay:10.37,2013-06-25 09:59:00,
2013-06-25 05:04:00,69.8,59.6,27.19,North,0,0.0,0.0,70,0.00,CLR,OVC,0.00,WeatherDisplay:10.37,2013-06-25 10:04:00,
2013-06-25 05:09:00,69.8,59.6,27.19,North,0,0.0,0.0,70,0.00,CLR,OVC,0.00,WeatherDisplay:10.37,2013-06-25 10:09:00,
2013-06-25 05:14:00,69.8,59.6,27.19,North,0,0.0,0.0,70,0.00,CLR,OVC,0.00,WeatherDisplay:10.37,2013-06-25 10:14:00,
2013-06-25 05:19:00,69.8,59.6,27.19,North,0,0.0,0.0,70,0.00,CLR,OVC,0.00,WeatherDisplay:10.37,2013-06-25 10:19:00,
2013-06-25 05:24:00,69.8,59.6,27.19,North,0,0.0,0.0,70,0.00,CLR,OVC,0.00,WeatherDisplay:10.37,2013-06-25 10:24:00,
2013-06-25 05:29:00,69.8,59.6,27.19,North,0,0.0,0.0,70,0.00,CLR,OVC,0.00,WeatherDisplay:10.37,2013-06-25 10:29:00,
2013-06-25 05:34:00,70.0,59.7,27.19,North,0,0.0,0.0,70,0.00,CLR,OVC,0.00,WeatherDisplay:10.37,2013-06-25 10:34:00,
2013-06-25 05:39:00,70.0,59.7,27.19,North,0,0.0,0.0,70,0.00,CLR,OVC,0.00,WeatherDisplay:10.37,2013-06-25 10:39:00,
2013-06-25 05:44:00,70.0,59.7,27.19,North,0,0.0,0.0,70,0.00,CLR,OVC,0.00,WeatherDisplay:10.37,2013-06-25 10:44:00,
2013-06-25 05:49:00,70.0,59.7,27.19,North,0,0.0,0.0,70,0.00,CLR,OVC,0.00,WeatherDisplay:10.37,2013-06-25 10:49:00,
2013-06-25 05:54:00,70.0,59.7,27.19,North,0,0.0,0.0,70,0.00,CLR,OVC,0.00,WeatherDisplay:10.37,2013-06-25 10:54:00,
2013-06-25 05:59:00,70.2,59.9,27.19,North,0,0.0,0.0,70,0.00,CLR,OVC,0.00,WeatherDisplay:10.37,2013-06-25 10:59:00,
2013-06-25 06:04:00,70.2,60.3,27.19,North,0,0.0,0.0,71,0.00,CLR,OVC,0.00,WeatherDisplay:10.37,2013-06-25 11:04:00,
2013-06-25 06:09:00,70.3,60.5,27.19,North,0,0.0,0.0,71,0.00,CLR,OVC,0.00,WeatherDisplay:10.37,2013-06-25 11:09:00,
2013-06-25 06:14:00,70.5,60.7,27.19,North,0,0.0,0.0,71,0.00,CLR,OVC,0.00,WeatherDisplay:10.37,2013-06-25 11:14:00,
2013-06-25 06:19:00,70.7,60.8,27.19,North,0,0.0,0.0,71,0.00,CLR,OVC,0.00,WeatherDisplay:10.37,2013-06-25 11:19:00,
2013-06-25 06:24:00,70.7,60.8,27.19,North,0,0.0,0.0,71,0.00,CLR,OVC,0.00,WeatherDisplay:10.37,2013-06-25 11:24:00,
2013-06-25 06:29:00,70.9,61.0,27.19,North,0,0.0,0.0,71,0.00,CLR,OVC,0.00,WeatherDisplay:10.37,2013-06-25 11:29:00,
2013-06-25 06:34:00,70.9,61.0,27.19,North,0,0.0,0.0,71,0.00,CLR,OVC,0.00,WeatherDisplay:10.37,2013-06-25 11:34:00,
2013-06-25 06:39:00,71.1,61.2,27.19,North,0,0.0,0.0,71,0.00,CLR,OVC,0.00,WeatherDisplay:10.37,2013-06-25 11:39:00,
2013-06-25 06:44:00,71.1,61.2,27.19,North,0,0.0,0.0,71,0.00,CLR,OVC,0.00,WeatherDisplay:10.37,2013-06-25 11:44:00,
2013-06-25 06:49:00,71.2,61.4,27.19,North,0,0.0,0.0,71,0.00,CLR,OVC,0.00,WeatherDisplay:10.37,2013-06-25 11:49:00,
2013-06-25 06:54:00,71.2,61.4,27.19,North,0,0.0,0.0,71,0.00,CLR,OVC,0.00,WeatherDisplay:10.37,2013-06-25 11:54:00,
2013-06-25 06:59:00,71.2,61.4,27.19,North,0,0.0,0.0,71,0.00,CLR,OVC,0.00,WeatherDisplay:10.37,2013-06-25 11:59:00,
2013-06-25 07:04:00,71.4,61.5,27.19,North,0,0.0,0.0,71,0.00,BKN,OVC,0.00,WeatherDisplay:10.37,2013-06-25 12:04:00,
2013-06-25 07:09:00,71.4,61.5,27.19,North,0,0.0,0.0,71,0.00,BKN,OVC,0.00,WeatherDisplay:10.37,2013-06-25 12:09:00,
2013-06-25 07:14:00,71.4,61.5,27.19,North,0,0.0,0.0,71,0.00,BKN,OVC,0.00,WeatherDisplay:10.37,2013-06-25 12:14:00,
2013-06-25 07:19:00,71.6,61.7,27.19,North,0,0.0,0.0,71,0.00,BKN,OVC,0.00,WeatherDisplay:10.37,2013-06-25 12:19:00,
2013-06-25 07:24:00,71.6,61.7,27.19,North,0,0.0,0.0,71,0.00,BKN,OVC,0.00,WeatherDisplay:10.37,2013-06-25 12:24:00,
2013-06-25 07:29:00,71.6,61.7,27.19,North,0,0.0,0.0,71,0.00,BKN,OVC,0.00,WeatherDisplay:10.37,2013-06-25 12:29:00,
2013-06-25 07:34:00,71.6,61.3,27.19,North,0,0.0,0.0,70,0.00,BKN,OVC,0.00,WeatherDisplay:10.37,2013-06-25 12:34:00,
2013-06-25 07:39:00,71.6,61.7,27.19,North,0,0.0,0.0,71,0.00,BKN,OVC,0.00,WeatherDisplay:10.37,2013-06-25 12:39:00,
2013-06-25 07:44:00,71.8,61.9,27.19,North,0,0.0,0.0,71,0.00,BKN,OVC,0.00,WeatherDisplay:10.37,2013-06-25 12:44:00,
2013-06-25 07:49:00,71.8,61.9,27.19,North,0,0.0,0.0,71,0.00,BKN,OVC,0.00,WeatherDisplay:10.37,2013-06-25 12:49:00,
2013-06-25 07:54:00,72.0,62.0,27.19,North,0,0.0,0.0,71,0.00,BKN,OVC,0.00,WeatherDisplay:10.37,2013-06-25 12:54:00,
2013-06-25 07:59:00,72.0,62.0,27.19,North,0,0.0,0.0,71,0.00,BKN,OVC,0.00,WeatherDisplay:10.37,2013-06-25 12:59:00,
2013-06-25 08:04:00,72.1,62.2,27.19,North,0,0.0,0.0,71,0.00,SCT,OVC,0.00,WeatherDisplay:10.37,2013-06-25 13:04:00,
2013-06-25 08:09:00,72.1,62.2,27.19,North,0,0.0,0.0,71,0.00,SCT,OVC,0.00,WeatherDisplay:10.37,2013-06-25 13:09:00,
2013-06-25 08:14:00,72.1,62.2,27.19,North,0,0.0,0.0,71,0.00,SCT,OVC,0.00,WeatherDisplay:10.37,2013-06-25 13:14:00,
2013-06-25 08:19:00,72.1,62.2,27.19,North,0,0.0,0.0,71,0.00,SCT,OVC,0.00,WeatherDisplay:10.37,2013-06-25 13:19:00,
2013-06-25 08:24:00,72.3,62.4,27.19,North,0,0.0,0.0,71,0.00,SCT,OVC,0.00,WeatherDisplay:10.37,2013-06-25 13:24:00,
2013-06-25 08:29:00,72.5,62.6,27.19,North,0,0.0,0.0,71,0.00,SCT,OVC,0.00,WeatherDisplay:10.37,2013-06-25 13:29:00,
2013-06-25 08:34:00,72.7,62.7,27.19,North,0,0.0,0.0,71,0.00,SCT,OVC,0.00,WeatherDisplay:10.37,2013-06-25 13:34:00,
2013-06-25 08:39:00,72.9,62.9,27.19,North,0,0.0,0.0,71,0.00,SCT,OVC,0.00,WeatherDisplay:10.37,2013-06-25 13:39:00,
2013-06-25 08:44:00,73.0,63.1,27.19,North,0,0.0,0.0,71,0.00,SCT,OVC,0.00,WeatherDisplay:10.37,2013-06-25 13:44:00,
2013-06-25 08:49:00,73.4,63.4,27.19,North,0,0.0,0.0,71,0.00,SCT,OVC,0.00,WeatherDisplay:10.37,2013-06-25 13:49:00,
2013-06-25 08:54:00,73.8,63.8,27.19,North,0,0.0,0.0,71,0.00,SCT,OVC,0.00,WeatherDisplay:10.37,2013-06-25 13:54:00,
2013-06-25 08:59:00,73.9,63.9,27.19,North,0,0.0,0.0,71,0.00,SCT,OVC,0.00,WeatherDisplay:10.37,2013-06-25 13:59:00,
2013-06-25 09:04:00,74.3,64.3,27.19,North,0,0.0,0.0,71,0.00,SCT,OVC,0.00,WeatherDisplay:10.37,2013-06-25 14:04:00,
2013-06-25 09:09:00,74.5,64.5,27.19,North,0,0.0,0.0,71,0.00,SCT,OVC,0.00,WeatherDisplay:10.37,2013-06-25 14:09:00,
2013-06-25 09:14:00,74.7,64.6,27.19,North,0,0.0,0.0,71,0.00,SCT,OVC,0.00,WeatherDisplay:10.37,2013-06-25 14:14:00,
2013-06-25 09:19:00,75.0,65.0,27.19,North,0,0.0,0.0,71,0.00,CLR,OVC,0.00,WeatherDisplay:10.37,2013-06-25 14:19:00,
2013-06-25 09:25:00,75.2,65.1,27.19,North,0,0.0,0.0,71,0.00,CLR,OVC,0.00,WeatherDisplay:10.37,2013-06-25 14:25:00,
2013-06-25 09:30:00,75.6,65.5,27.19,North,0,0.0,0.0,71,0.00,CLR,OVC,0.00,WeatherDisplay:10.37,2013-06-25 14:30:00,
2013-06-25 09:35:00,75.9,65.8,27.19,North,0,0.0,0.0,71,0.00,CLR,OVC,0.00,WeatherDisplay:10.37,2013-06-25 14:35:00,
2013-06-25 09:40:00,76.1,66.0,27.19,North,0,0.0,0.0,71,0.00,CLR,OVC,0.00,WeatherDisplay:10.37,2013-06-25 14:40:00,
2013-06-25 09:45:00,76.5,66.8,27.19,North,0,0.0,0.0,72,0.00,CLR,OVC,0.00,WeatherDisplay:10.37,2013-06-25 14:45:00,
2013-06-25 09:50:00,76.6,66.5,27.19,North,0,0.0,0.0,71,0.00,CLR,OVC,0.00,WeatherDisplay:10.37,2013-06-25 14:50:00,
2013-06-25 09:55:00,77.2,67.0,27.19,North,0,0.0,0.0,71,0.00,CLR,OVC,0.00,WeatherDisplay:10.37,2013-06-25 14:55:00,
2013-06-25 10:00:00,77.5,67.0,27.19,North,0,0.0,0.0,70,0.00,CLR,OVC,0.00,WeatherDisplay:10.37,2013-06-25 15:00:00,
2013-06-25 10:05:00,77.9,67.3,27.19,North,0,0.0,0.0,70,0.00,BKN,OVC,0.00,WeatherDisplay:10.37,2013-06-25 15:05:00,
2013-06-25 10:10:00,78.3,67.3,27.19,North,0,0.0,0.0,69,0.00,BKN,OVC,0.00,WeatherDisplay:10.37,2013-06-25 15:10:00,
2013-06-25 10:15:00,78.8,66.9,27.19,North,0,0.0,0.0,67,0.00,BKN,OVC,0.00,WeatherDisplay:10.37,2013-06-25 15:15:00,
2013-06-25 10:20:00,79.3,67.0,27.19,North,0,0.0,0.0,66,0.00,BKN,OVC,0.00,WeatherDisplay:10.37,2013-06-25 15:20:00,
2013-06-25 10:25:00,79.9,66.6,27.19,North,0,0.0,0.0,64,0.00,BKN,OVC,0.00,WeatherDisplay:10.37,2013-06-25 15:25:00,
2013-06-25 10:30:00,80.6,65.9,27.19,North,0,0.0,0.0,61,0.00,BKN,OVC,0.00,WeatherDisplay:10.37,2013-06-25 15:30:00,
2013-06-25 10:35:00,81.0,64.8,27.19,North,0,0.0,0.0,58,0.00,BKN,OVC,0.00,WeatherDisplay:10.37,2013-06-25 15:35:00,
2013-06-25 10:40:00,81.5,63.3,27.19,North,0,0.0,0.0,54,0.00,BKN,OVC,0.00,WeatherDisplay:10.37,2013-06-25 15:40:00,
2013-06-25 10:45:00,81.7,60.7,27.19,North,0,0.0,0.0,49,0.00,BKN,OVC,0.00,WeatherDisplay:10.37,2013-06-25 15:45:00,
2013-06-25 10:50:00,81.9,58.4,27.19,North,0,0.0,0.0,45,0.00,BKN,OVC,0.00,WeatherDisplay:10.37,2013-06-25 15:50:00,
2013-06-25 10:55:00,81.7,56.4,27.19,North,0,0.0,0.0,42,0.00,BKN,OVC,0.00,WeatherDisplay:10.37,2013-06-25 15:55:00,
2013-06-25 11:00:00,81.9,55.2,27.19,North,0,0.0,0.0,40,0.00,BKN,OVC,0.00,WeatherDisplay:10.37,2013-06-25 16:00:00,
2013-06-25 11:05:00,82.2,54.1,27.19,North,0,0.0,0.0,38,0.00,SCT,OVC,0.00,WeatherDisplay:10.37,2013-06-25 16:05:00,
2013-06-25 11:10:00,82.8,51.5,27.19,North,0,0.0,0.0,34,0.00,SCT,OVC,0.00,WeatherDisplay:10.37,2013-06-25 16:10:00,
2013-06-25 11:15:00,83.7,51.5,27.19,North,0,0.0,0.0,33,0.00,SCT,OVC,0.00,WeatherDisplay:10.37,2013-06-25 16:15:00,
2013-06-25 11:20:00,83.8,50.0,27.19,North,0,0.0,0.0,31,0.00,SCT,OVC,0.00,WeatherDisplay:10.37,2013-06-25 16:20:00,
2013-06-25 11:25:00,84.4,49.6,27.19,North,0,0.0,0.0,30,0.00,SCT,OVC,0.00,WeatherDisplay:10.37,2013-06-25 16:25:00,
2013-06-25 11:30:00,84.2,48.5,27.19,North,0,0.0,0.0,29,0.00,SCT,OVC,0.00,WeatherDisplay:10.37,2013-06-25 16:30:00,
2013-06-25 11:35:00,84.6,47.9,27.19,North,0,0.0,0.0,28,0.00,SCT,OVC,0.00,WeatherDisplay:10.37,2013-06-25 16:35:00,
2013-06-25 11:40:00,85.1,47.4,27.19,North,0,0.0,0.0,27,0.00,SCT,OVC,0.00,WeatherDisplay:10.37,2013-06-25 16:40:00,
2013-06-25 11:45:00,84.9,46.2,27.19,North,0,0.0,0.0,26,0.00,SCT,OVC,0.00,WeatherDisplay:10.37,2013-06-25 16:45:00,
2013-06-25 11:50:00,84.2,45.6,27.19,North,0,0.0,0.0,26,0.00,SCT,OVC,0.00,WeatherDisplay:10.37,2013-06-25 16:50:00,
2013-06-25 11:55:00,83.7,45.1,27.19,North,0,0.0,0.0,26,0.00,SCT,OVC,0.00,WeatherDisplay:10.37,2013-06-25 16:55:00,
2013-06-25 12:00:00,84.0,45.4,27.19,North,0,0.0,0.0,26,0.00,SCT,OVC,0.00,WeatherDisplay:10.37,2013-06-25 17:00:00,
2013-06-25 12:05:00,85.1,44.2,27.19,North,0,0.0,0.0,24,0.00,SCT,OVC,0.00,WeatherDisplay:10.37,2013-06-25 17:05:00,
2013-06-25 12:10:00,86.2,45.2,27.19,North,0,0.0,0.0,24,0.00,SCT,OVC,0.00,WeatherDisplay:10.37,2013-06-25 17:10:00,
2013-06-25 12:15:00,86.7,43.3,27.19,North,0,0.0,0.0,22,0.00,SCT,OVC,0.00,WeatherDisplay:10.37,2013-06-25 17:15:00,
2013-06-25 12:20:00,86.9,42.3,27.19,North,0,0.0,0.0,21,0.00,SCT,OVC,0.00,WeatherDisplay:10.37,2013-06-25 17:20:00,
2013-06-25 12:25:00,86.9,41.0,27.19,North,0,0.0,0.0,20,0.00,SCT,OVC,0.00,WeatherDisplay:10.37,2013-06-25 17:25:00,
2013-06-25 12:30:00,85.8,40.1,27.19,North,0,0.0,0.0,20,0.00,SCT,OVC,0.00,WeatherDisplay:10.37,2013-06-25 17:30:00,
2013-06-25 12:35:00,84.7,39.2,27.19,North,0,0.0,0.0,20,0.00,SCT,OVC,0.00,WeatherDisplay:10.37,2013-06-25 17:35:00,
2013-06-25 12:40:00,84.0,39.9,27.19,North,0,0.0,0.0,21,0.00,SCT,OVC,0.00,WeatherDisplay:10.37,2013-06-25 17:40:00,
2013-06-25 12:45:00,83.5,40.6,27.19,North,0,0.0,0.0,22,0.00,SCT,OVC,0.00,WeatherDisplay:10.37,2013-06-25 17:45:00,
2013-06-25 12:50:00,83.1,41.5,27.19,North,0,0.0,0.0,23,0.00,SCT,OVC,0.00,WeatherDisplay:10.37,2013-06-25 17:50:00,
2013-06-25 12:55:00,82.9,41.3,27.19,North,0,0.0,0.0,23,0.00,SCT,OVC,0.00,WeatherDisplay:10.37,2013-06-25 17:55:00,
2013-06-25 13:00:00,82.8,41.2,27.19,North,0,0.0,0.0,23,0.00,SCT,OVC,0.00,WeatherDisplay:10.37,2013-06-25 18:00:00,
2013-06-25 13:05:00,82.8,41.2,27.19,North,0,0.0,0.0,23,0.00,CLR,OVC,0.00,WeatherDisplay:10.37,2013-06-25 18:05:00,
2013-06-25 13:10:00,82.9,42.4,27.19,North,0,0.0,0.0,24,0.00,CLR,OVC,0.00,WeatherDisplay:10.37,2013-06-25 18:10:00,
2013-06-25 13:15:00,83.3,41.6,27.19,North,0,0.0,0.0,23,0.00,CLR,OVC,0.00,WeatherDisplay:10.37,2013-06-25 18:15:00,
2013-06-25 13:20:00,83.1,42.6,27.19,North,0,0.0,0.0,24,0.00,CLR,OVC,0.00,WeatherDisplay:10.37,2013-06-25 18:20:00,
2013-06-25 13:25:00,82.8,41.2,27.19,North,0,0.0,0.0,23,0.00,CLR,OVC,0.00,WeatherDisplay:10.37,2013-06-25 18:25:00,
2013-06-25 13:30:00,82.8,41.2,27.19,North,0,0.0,0.0,23,0.00,CLR,OVC,0.00,WeatherDisplay:10.37,2013-06-25 18:30:00,
2013-06-25 13:35:00,82.8,41.2,27.19,North,0,0.0,0.0,23,0.00,CLR,OVC,0.00,WeatherDisplay:10.37,2013-06-25 18:35:00,
2013-06-25 13:40:00,82.6,41.0,27.19,North,0,0.0,0.0,23,0.00,CLR,OVC,0.00,WeatherDisplay:10.37,2013-06-25 18:40:00,
2013-06-25 13:46:00,82.4,42.0,27.19,North,0,0.0,0.0,24,0.00,CLR,OVC,0.00,WeatherDisplay:10.37,2013-06-25 18:46:00,
2013-06-25 13:51:00,82.4,42.0,27.19,North,0,0.0,0.0,24,0.00,CLR,OVC,0.00,WeatherDisplay:10.37,2013-06-25 18:51:00,
2013-06-25 13:56:00,82.6,41.0,27.19,North,0,0.0,0.0,23,0.00,CLR,OVC,0.00,WeatherDisplay:10.37,2013-06-25 18:56:00,
2013-06-25 14:01:00,82.8,41.2,27.19,North,0,0.0,0.0,23,0.00,CLR,OVC,0.00,WeatherDisplay:10.37,2013-06-25 19:01:00,
2013-06-25 14:06:00,82.9,40.2,27.19,North,0,0.0,0.0,22,0.00,CLR,OVC,0.00,WeatherDisplay:10.37,2013-06-25 19:06:00,
2013-06-25 14:11:00,83.1,40.3,27.19,North,0,0.0,0.0,22,0.00,CLR,OVC,0.00,WeatherDisplay:10.37,2013-06-25 19:11:00,
2013-06-25 14:16:00,83.3,41.6,27.19,North,0,0.0,0.0,23,0.00,CLR,OVC,0.00,WeatherDisplay:10.37,2013-06-25 19:16:00,
2013-06-25 14:21:00,82.9,42.4,27.19,North,0,0.0,0.0,24,0.00,CLR,OVC,0.00,WeatherDisplay:10.37,2013-06-25 19:21:00,
2013-06-25 14:26:00,82.6,42.1,27.19,North,0,0.0,0.0,24,0.00,CLR,OVC,0.00,WeatherDisplay:10.37,2013-06-25 19:26:00,
2013-06-25 14:31:00,82.4,42.0,27.19,North,0,0.0,0.0,24,0.00,CLR,OVC,0.00,WeatherDisplay:10.37,2013-06-25 19:31:00,
2013-06-25 14:36:00,81.9,43.6,27.19,North,0,0.0,0.0,26,0.00,CLR,OVC,0.00,WeatherDisplay:10.37,2013-06-25 19:36:00,
2013-06-25 14:41:00,81.5,43.3,27.19,North,0,0.0,0.0,26,0.00,CLR,OVC,0.00,WeatherDisplay:10.37,2013-06-25 19:41:00,
2013-06-25 14:46:00,81.1,44.0,27.19,North,0,0.0,0.0,27,0.00,CLR,OVC,0.00,WeatherDisplay:10.37,2013-06-25 19:46:00,
2013-06-25 14:51:00,81.3,45.1,27.19,North,0,0.0,0.0,28,0.00,CLR,OVC,0.00,WeatherDisplay:10.37,2013-06-25 19:51:00,
2013-06-25 14:56:00,81.3,44.1,27.19,North,0,0.0,0.0,27,0.00,CLR,OVC,0.00,WeatherDisplay:10.37,2013-06-25 19:56:00,
2013-06-25 15:01:00,81.5,44.3,27.19,North,0,0.0,0.0,27,0.00,CLR,OVC,0.00,WeatherDisplay:10.37,2013-06-25 20:01:00,
2013-06-25 15:06:00,81.7,44.4,27.19,North,0,0.0,0.0,27,0.00,CLR,OVC,0.00,WeatherDisplay:10.37,2013-06-25 20:06:00,
2013-06-25 15:11:00,82.2,43.9,27.19,North,0,0.0,0.0,26,0.00,CLR,OVC,0.00,WeatherDisplay:10.37,2013-06-25 20:11:00,
2013-06-25 15:16:00,82.6,44.2,27.19,North,0,0.0,0.0,26,0.00,CLR,OVC,0.00,WeatherDisplay:10.37,2013-06-25 20:16:00,
2013-06-25 15:21:00,83.5,42.9,27.19,North,0,0.0,0.0,24,0.00,CLR,OVC,0.00,WeatherDisplay:10.37,2013-06-25 20:21:00,
2013-06-25 15:26:00,84.0,42.2,27.19,North,0,0.0,0.0,23,0.00,CLR,OVC,0.00,WeatherDisplay:10.37,2013-06-25 20:26:00,
2013-06-25 15:31:00,84.6,40.3,27.19,North,0,0.0,0.0,21,0.00,CLR,OVC,0.00,WeatherDisplay:10.37,2013-06-25 20:31:00,
2013-06-25 15:36:00,85.1,39.5,27.19,North,0,0.0,0.0,20,0.00,CLR,OVC,0.00,WeatherDisplay:10.37,2013-06-25 20:36:00,
2013-06-25 15:41:00,85.5,39.8,27.19,North,0,0.0,0.0,20,0.00,CLR,OVC,0.00,WeatherDisplay:10.37,2013-06-25 20:41:00,
2013-06-25 15:46:00,85.3,38.3,27.19,North,0,0.0,0.0,19,0.00,CLR,OVC,0.00,WeatherDisplay:10.37,2013-06-25 20:46:00,
2013-06-25 15:51:00,84.9,38.0,27.19,North,0,0.0,0.0,19,0.00,CLR,OVC,0.00,WeatherDisplay:10.37,2013-06-25 20:51:00,
2013-06-25 15:56:00,84.9,39.4,27.19,North,0,0.0,0.0,20,0.00,CLR,OVC,0.00,WeatherDisplay:10.37,2013-06-25 20:56:00,
2013-06-25 16:01:00,85.1,39.5,27.19,North,0,0.0,0.0,20,0.00,CLR,OVC,0.00,WeatherDisplay:10.37,2013-06-25 21:01:00,
2013-06-25 16:06:00,85.6,40.0,27.19,North,0,0.0,0.0,20,0.00,CLR,OVC,0.00,WeatherDisplay:10.37,2013-06-25 21:06:00,
2013-06-25 16:11:00,85.8,40.1,27.19,North,0,0.0,0.0,20,0.00,CLR,OVC,0.00,WeatherDisplay:10.37,2013-06-25 21:11:00,
2013-06-25 16:16:00,86.0,38.9,27.19,North,0,0.0,0.0,19,0.00,CLR,OVC,0.00,WeatherDisplay:10.37,2013-06-25 21:16:00,
2013-06-25 16:21:00,86.2,39.1,27.19,North,0,0.0,0.0,19,0.00,CLR,OVC,0.00,WeatherDisplay:10.37,2013-06-25 21:21:00,
2013-06-25 16:26:00,86.4,37.8,27.19,North,0,0.0,0.0,18,0.00,CLR,OVC,0.00,WeatherDisplay:10.37,2013-06-25 21:26:00,
2013-06-25 16:31:00,86.5,38.0,27.19,North,0,0.0,0.0,18,0.00,CLR,OVC,0.00,WeatherDisplay:10.37,2013-06-25 21:31:00,
2013-06-25 16:36:00,86.9,38.3,27.19,North,0,0.0,0.0,18,0.00,CLR,OVC,0.00,WeatherDisplay:10.37,2013-06-25 21:36:00,
2013-06-25 16:41:00,87.1,38.4,27.19,North,0,0.0,0.0,18,0.00,CLR,OVC,0.00,WeatherDisplay:10.37,2013-06-25 21:41:00,
2013-06-25 16:46:00,87.1,38.4,27.19,North,0,0.0,0.0,18,0.00,CLR,OVC,0.00,WeatherDisplay:10.37,2013-06-25 21:46:00,
2013-06-25 16:51:00,87.8,39.0,27.19,North,0,0.0,0.0,18,0.00,CLR,OVC,0.00,WeatherDisplay:10.37,2013-06-25 21:51:00,
2013-06-25 16:56:00,88.2,39.3,27.19,North,0,0.0,0.0,18,0.00,CLR,OVC,0.00,WeatherDisplay:10.37,2013-06-25 21:56:00,
2013-06-25 17:01:00,87.8,34.4,27.19,North,0,0.0,0.0,15,0.00,CLR,OVC,0.00,WeatherDisplay:10.37,2013-06-25 22:01:00,
2013-06-25 17:06:00,87.3,38.6,27.19,North,0,0.0,0.0,18,0.00,CLR,OVC,0.00,WeatherDisplay:10.37,2013-06-25 22:06:00,
2013-06-25 17:11:00,87.1,30.3,27.19,North,0,0.0,0.0,13,0.00,CLR,OVC,0.00,WeatherDisplay:10.37,2013-06-25 22:11:00,
2013-06-25 17:16:00,86.9,35.3,27.19,North,0,0.0,0.0,16,0.00,CLR,OVC,0.00,WeatherDisplay:10.37,2013-06-25 22:16:00,
2013-06-25 17:21:00,86.4,37.8,27.19,North,0,0.0,0.0,18,0.00,CLR,OVC,0.00,WeatherDisplay:10.37,2013-06-25 22:21:00,
2013-06-25 17:26:00,86.2,37.7,27.19,North,0,0.0,0.0,18,0.00,CLR,OVC,0.00,WeatherDisplay:10.37,2013-06-25 22:26:00,
2013-06-25 17:31:00,86.5,38.0,27.19,North,0,0.0,0.0,18,0.00,CLR,OVC,0.00,WeatherDisplay:10.37,2013-06-25 22:31:00,
2013-06-25 17:36:00,86.9,38.3,27.19,North,0,0.0,0.0,18,0.00,CLR,OVC,0.00,WeatherDisplay:10.37,2013-06-25 22:36:00,
2013-06-25 17:41:00,87.1,38.4,27.19,North,0,0.0,0.0,18,0.00,CLR,OVC,0.00,WeatherDisplay:10.37,2013-06-25 22:41:00,
2013-06-25 17:46:00,86.5,38.0,27.19,North,0,0.0,0.0,18,0.00,CLR,OVC,0.00,WeatherDisplay:10.37,2013-06-25 22:46:00,
2013-06-25 17:51:00,86.2,37.7,27.19,North,0,0.0,0.0,18,0.00,CLR,OVC,0.00,WeatherDisplay:10.37,2013-06-25 22:51:00,
2013-06-25 17:56:00,86.0,37.5,27.19,North,0,0.0,0.0,18,0.00,CLR,OVC,0.00,WeatherDisplay:10.37,2013-06-25 22:56:00,
2013-06-25 18:01:00,86.0,37.5,27.19,North,0,0.0,0.0,18,0.00,CLR,OVC,0.00,WeatherDisplay:10.37,2013-06-25 23:01:00,
2013-06-25 18:06:00,86.0,37.5,27.19,North,0,0.0,0.0,18,0.00,CLR,OVC,0.00,WeatherDisplay:10.37,2013-06-25 23:06:00,
2013-06-25 18:11:00,86.2,37.7,27.19,North,0,0.0,0.0,18,0.00,CLR,OVC,0.00,WeatherDisplay:10.37,2013-06-25 23:11:00,
2013-06-25 18:16:00,86.2,37.7,27.19,North,0,0.0,0.0,18,0.00,CLR,OVC,0.00,WeatherDisplay:10.37,2013-06-25 23:16:00,
2013-06-25 18:21:00,85.6,38.6,27.19,North,0,0.0,0.0,19,0.00,CLR,OVC,0.00,WeatherDisplay:10.37,2013-06-25 23:21:00,
2013-06-25 18:26:00,85.5,37.1,27.19,North,0,0.0,0.0,18,0.00,CLR,OVC,0.00,WeatherDisplay:10.37,2013-06-25 23:26:00,
2013-06-25 18:31:00,85.3,37.0,27.19,North,0,0.0,0.0,18,0.00,CLR,OVC,0.00,WeatherDisplay:10.37,2013-06-25 23:31:00,
2013-06-25 18:36:00,84.9,36.7,27.19,North,0,0.0,0.0,18,0.00,CLR,OVC,0.00,WeatherDisplay:10.37,2013-06-25 23:36:00,
2013-06-25 18:41:00,84.6,37.8,27.19,North,0,0.0,0.0,19,0.00,CLR,OVC,0.00,WeatherDisplay:10.37,2013-06-25 23:41:00,
2013-06-25 18:46:00,84.0,38.6,27.19,North,0,0.0,0.0,20,0.00,CLR,OVC,0.00,WeatherDisplay:10.37,2013-06-25 23:46:00,
2013-06-25 18:51:00,83.3,39.3,27.19,North,0,0.0,0.0,21,0.00,CLR,OVC,0.00,WeatherDisplay:10.37,2013-06-25 23:51:00,
2013-06-25 18:56:00,82.9,39.0,27.19,North,0,0.0,0.0,21,0.00,CLR,OVC,0.00,WeatherDisplay:10.37,2013-06-25 23:56:00,
2013-06-25 19:01:00,82.6,38.7,27.19,North,0,0.0,0.0,21,0.00,CLR,OVC,0.00,WeatherDisplay:10.37,2013-06-26 00:01:00,
2013-06-25 19:06:00,82.6,38.7,27.19,North,0,0.0,0.0,21,0.00,CLR,OVC,0.00,WeatherDisplay:10.37,2013-06-26 00:06:00,
2013-06-25 19:11:00,82.4,38.5,27.19,North,0,0.0,0.0,21,0.00,CLR,OVC,0.00,WeatherDisplay:10.37,2013-06-26 00:11:00,
2013-06-25 19:16:00,82.2,38.4,27.19,North,0,0.0,0.0,21,0.00,CLR,OVC,0.00,WeatherDisplay:10.37,2013-06-26 00:16:00,
2013-06-25 19:21:00,82.0,38.2,27.19,North,0,0.0,0.0,21,0.00,CLR,OVC,0.00,WeatherDisplay:10.37,2013-06-26 00:21:00,
2013-06-25 19:26:00,81.9,38.1,27.19,North,0,0.0,0.0,21,0.00,CLR,OVC,0.00,WeatherDisplay:10.37,2013-06-26 00:26:00,
2013-06-25 19:31:00,81.3,37.6,27.19,North,0,0.0,0.0,21,0.00,CLR,OVC,0.00,WeatherDisplay:10.37,2013-06-26 00:31:00,
2013-06-25 19:36:00,81.1,37.5,27.19,North,0,0.0,0.0,21,0.00,CLR,OVC,0.00,WeatherDisplay:10.37,2013-06-26 00:36:00,
2013-06-25 19:41:00,81.0,37.3,27.19,North,0,0.0,0.0,21,0.00,CLR,OVC,0.00,WeatherDisplay:10.37,2013-06-26 00:41:00,
2013-06-25 19:46:00,80.6,38.2,27.19,North,0,0.0,0.0,22,0.00,CLR,OVC,0.00,WeatherDisplay:10.37,2013-06-26 00:46:00,
2013-06-25 19:51:00,80.4,38.1,27.19,North,0,0.0,0.0,22,0.00,CLR,OVC,0.00,WeatherDisplay:10.37,2013-06-26 00:51:00,
2013-06-25 19:56:00,80.1,38.9,27.19,North,0,0.0,0.0,23,0.00,CLR,OVC,0.00,WeatherDisplay:10.37,2013-06-26 00:56:00,
2013-06-25 20:01:00,79.9,38.8,27.19,North,0,0.0,0.0,23,0.00,CLR,OVC,0.00,WeatherDisplay:10.37,2013-06-26 01:01:00,
2013-06-25 20:06:00,79.7,38.6,27.19,North,0,0.0,0.0,23,0.00,CLR,OVC,0.00,WeatherDisplay:10.37,2013-06-26 01:06:00,
2013-06-25 20:11:00,79.5,39.6,27.19,North,0,0.0,0.0,24,0.00,CLR,OVC,0.00,WeatherDisplay:10.37,2013-06-26 01:11:00,
2013-06-25 20:16:00,79.5,39.6,27.19,North,0,0.0,0.0,24,0.00,CLR,OVC,0.00,WeatherDisplay:10.37,2013-06-26 01:16:00,
2013-06-25 20:21:00,79.3,39.4,27.19,North,0,0.0,0.0,24,0.00,CLR,OVC,0.00,WeatherDisplay:10.37,2013-06-26 01:21:00,
2013-06-25 20:26:00,79.3,40.4,27.19,North,0,0.0,0.0,25,0.00,CLR,OVC,0.00,WeatherDisplay:10.37,2013-06-26 01:26:00,
2013-06-25 20:31:00,79.0,40.1,27.19,North,0,0.0,0.0,25,0.00,CLR,OVC,0.00,WeatherDisplay:10.37,2013-06-26 01:31:00,
2013-06-25 20:36:00,78.8,41.0,27.19,North,0,0.0,0.0,26,0.00,CLR,OVC,0.00,WeatherDisplay:10.37,2013-06-26 01:36:00,
2013-06-25 20:41:00,78.6,41.8,27.19,North,0,0.0,0.0,27,0.00,CLR,OVC,0.00,WeatherDisplay:10.37,2013-06-26 01:41:00,
2013-06-25 20:46:00,78.4,42.6,27.19,North,0,0.0,0.0,28,0.00,CLR,OVC,0.00,WeatherDisplay:10.37,2013-06-26 01:46:00,
2013-06-25 20:51:00,78.3,42.5,27.19,North,0,0.0,0.0,28,0.00,CLR,OVC,0.00,WeatherDisplay:10.37,2013-06-26 01:51:00,
2013-06-25 20:56:00,78.1,43.2,27.19,North,0,0.0,0.0,29,0.00,CLR,OVC,0.00,WeatherDisplay:10.37,2013-06-26 01:56:00,
2013-06-25 21:01:00,78.1,44.1,27.19,North,0,0.0,0.0,30,0.00,CLR,OVC,0.00,WeatherDisplay:10.37,2013-06-26 02:01:00,
2013-06-25 21:06:00,77.9,44.0,27.19,North,0,0.0,0.0,30,0.00,CLR,OVC,0.00,WeatherDisplay:10.37,2013-06-26 02:06:00,
2013-06-25 21:11:00,77.9,44.0,27.19,North,0,0.0,0.0,30,0.00,CLR,OVC,0.00,WeatherDisplay:10.37,2013-06-26 02:11:00,
2013-06-25 21:16:00,77.9,44.0,27.19,North,0,0.0,0.0,30,0.00,CLR,OVC,0.00,WeatherDisplay:10.37,2013-06-26 02:16:00,
2013-06-25 21:21:00,77.7,43.8,27.19,North,0,0.0,0.0,30,0.00,CLR,OVC,0.00,WeatherDisplay:10.37,2013-06-26 02:21:00,
2013-06-25 21:26:00,77.7,44.7,27.19,North,0,0.0,0.0,31,0.00,CLR,OVC,0.00,WeatherDisplay:10.37,2013-06-26 02:26:00,
2013-06-25 21:31:00,77.7,44.7,27.19,North,0,0.0,0.0,31,0.00,CLR,OVC,0.00,WeatherDisplay:10.37,2013-06-26 02:31:00,
2013-06-25 21:36:00,77.7,44.7,27.19,North,0,0.0,0.0,31,0.00,CLR,OVC,0.00,WeatherDisplay:10.37,2013-06-26 02:36:00,
2013-06-25 21:41:00,77.5,44.5,27.19,North,0,0.0,0.0,31,0.00,CLR,OVC,0.00,WeatherDisplay:10.37,2013-06-26 02:41:00,
2013-06-25 21:46:00,77.5,44.5,27.19,North,0,0.0,0.0,31,0.00,CLR,OVC,0.00,WeatherDisplay:10.37,2013-06-26 02:46:00,
2013-06-25 21:51:00,77.7,44.7,27.19,North,0,0.0,0.0,31,0.00,CLR,OVC,0.00,WeatherDisplay:10.37,2013-06-26 02:51:00,
2013-06-25 21:56:00,77.7,44.7,27.19,North,0,0.0,0.0,31,0.00,CLR,OVC,0.00,WeatherDisplay:10.37,2013-06-26 02:56:00,
2013-06-25 22:01:00,77.9,44.8,27.19,North,0,0.0,0.0,31,0.00,CLR,OVC,0.00,WeatherDisplay:10.37,2013-06-26 03:01:00,
2013-06-25 22:06:00,77.9,44.8,27.19,North,0,0.0,0.0,31,0.00,CLR,OVC,0.00,WeatherDisplay:10.37,2013-06-26 03:06:00,
2013-06-25 22:11:00,78.1,45.0,27.19,North,0,0.0,0.0,31,0.00,CLR,OVC,0.00,WeatherDisplay:10.37,2013-06-26 03:11:00,
2013-06-25 22:16:00,77.9,44.8,27.19,North,0,0.0,0.0,31,0.00,CLR,OVC,0.00,WeatherDisplay:10.37,2013-06-26 03:16:00,
2013-06-25 22:21:00,77.7,44.7,27.19,North,0,0.0,0.0,31,0.00,CLR,OVC,0.00,WeatherDisplay:10.37,2013-06-26 03:21:00,
2013-06-25 22:26:00,77.7,44.7,27.19,North,0,0.0,0.0,31,0.00,CLR,OVC,0.00,WeatherDisplay:10.37,2013-06-26 03:26:00,
2013-06-25 22:31:00,77.9,45.7,27.19,North,0,0.0,0.0,32,0.00,CLR,OVC,0.00,WeatherDisplay:10.37,2013-06-26 03:31:00,
2013-06-25 22:36:00,77.9,45.7,27.19,North,0,0.0,0.0,32,0.00,CLR,OVC,0.00,WeatherDisplay:10.37,2013-06-26 03:36:00,
2013-06-25 22:41:00,78.1,45.8,27.19,North,0,0.0,0.0,32,0.00,CLR,OVC,0.00,WeatherDisplay:10.37,2013-06-26 03:41:00,
2013-06-25 22:46:00,77.9,45.7,27.19,North,0,0.0,0.0,32,0.00,CLR,OVC,0.00,WeatherDisplay:10.37,2013-06-26 03:46:00,
2013-06-25 22:51:00,77.9,45.7,27.19,North,0,0.0,0.0,32,0.00,CLR,OVC,0.00,WeatherDisplay:10.37,2013-06-26 03:51:00,
2013-06-25 22:56:00,77.9,45.7,27.19,North,0,0.0,0.0,32,0.00,CLR,OVC,0.00,WeatherDisplay:10.37,2013-06-26 03:56:00,
2013-06-25 23:00:00,77.7,45.5,27.19,North,0,0.0,0.0,32,0.00,CLR,OVC,0.00,WeatherDisplay:10.37,2013-06-26 04:00:00,
2013-06-25 23:01:00,77.7,45.5,27.19,North,0,0.0,0.0,32,0.00,CLR,OVC,0.00,WeatherDisplay:10.37,2013-06-26 04:01:00,
2013-06-25 23:03:00,77.5,45.3,27.19,North,0,0.0,0.0,32,0.00,CLR,OVC,0.00,WeatherDisplay:10.37,2013-06-26 04:03:00,
2013-06-25 23:04:00,77.5,45.3,27.19,North,0,0.0,0.0,32,0.00,CLR,OVC,0.00,WeatherDisplay:10.37,2013-06-26 04:04:00,
2013-06-25 23:07:00,77.4,44.4,27.19,North,0,0.0,0.0,31,0.00,CLR,OVC,0.00,WeatherDisplay:10.37,2013-06-26 04:07:00,
2013-06-25 23:12:00,77.2,44.2,27.19,North,0,0.0,0.0,31,0.00,CLR,OVC,0.00,WeatherDisplay:10.37,2013-06-26 04:12:00,
2013-06-25 23:17:00,77.0,44.0,27.19,North,0,0.0,0.0,31,0.00,CLR,OVC,0.00,WeatherDisplay:10.37,2013-06-26 04:17:00,
2013-06-25 23:22:00,76.8,43.9,27.19,North,0,0.0,0.0,31,0.00,CLR,OVC,0.00,WeatherDisplay:10.37,2013-06-26 04:22:00,
2013-06-25 23:27:00,76.5,43.6,27.19,North,0,0.0,0.0,31,0.00,CLR,OVC,0.00,WeatherDisplay:10.37,2013-06-26 04:27:00,
2013-06-25 23:32:00,76.3,43.4,27.19,North,0,0.0,0.0,31,0.00,CLR,OVC,0.00,WeatherDisplay:10.37,2013-06-26 04:32:00,
2013-06-25 23:37:00,76.1,40.6,27.19,North,0,0.0,0.0,28,0.00,CLR,OVC,0.00,WeatherDisplay:10.37,2013-06-26 04:37:00,
2013-06-25 23:42:00,76.1,38.7,27.19,North,0,0.0,0.0,26,0.00,CLR,OVC,0.00,WeatherDisplay:10.37,2013-06-26 04:42:00,
2013-06-25 23:47:00,75.9,37.6,27.19,North,0,0.0,0.0,25,0.00,CLR,OVC,0.00,WeatherDisplay:10.37,2013-06-26 04:47:00,
2013-06-25 23:52:00,75.6,37.2,27.19,North,0,0.0,0.0,25,0.00,CLR,OVC,0.00,WeatherDisplay:10.37,2013-06-26 04:52:00,
2013-06-25 23:57:00,75.4,37.1,27.19,North,0,0.0,0.0,25,0.00,CLR,OVC,0.00,WeatherDisplay:10.37,2013-06-26 04:57:00,